Lid_Strength_Index
18 18 18 17 17 17 17 17 18 20 19 17 17 15 14 14 13 13 13 11 9 9 8 7 6 5 5 5 5 4 4 4 4 4 3 3 3 3
17 18 18 18 17 16 16 16 16 17 19 16 16 15 14 13 12 13 13 10 8 7 6 5 5 5 5 5 5 5 4 4 3 2 2 2 2 2
18 18 18 17 16 16 16 15 16 16 18 16 15 14 14 14 13 12 11 10 9 6 4 5 5 5 5 5 5 4 4 4 4 3 3 2 2 1
18 18 17 15 16 15 15 16 16 15 16 17 16 15 14 13 11 11 9 7 7 6 5 5 5 5 5 5 4 4 4 4 4 3 3 3 3 3
17 17 16 16 16 16 16 16 15 14 14 15 16 13 12 11 10 10 10 10 10 8 7 6 6 6 6 5 5 5 5 5 5 4 4 4 4 3
16 16 16 16 16 15 15 15 14 15 15 15 13 12 11 11 11 13 13 12 12 11 9 8 8 7 7 7 7 7 7 6 6 5 5 5 5 4
16 16 15 14 11 12 13 14 14 14 13 12 12 13 13 13 14 13 14 13 12 12 13 12 13 12 12 10 9 8 8 7 6 6 5 5 4 4
16 15 15 13 14 11 11 10 10 11 12 12 13 14 14 14 14 14 14 15 16 12 14 12 12 13 12 12 10 9 8 7 6 5 5 4 4 4
16 15 15 14 13 14 12 9 8 8 8 11 14 15 15 13 13 13 14 14 14 13 13 14 13 14 13 12 9 9 8 7 6 5 5 5 4 4
16 16 16 15 14 12 12 10 11 11 11 12 13 12 11 12 13 13 13 13 13 13 14 16 14 14 13 13 9 8 8 7 6 6 6 6 6 5
15 15 15 13 11 9 10 12 12 12 11 9 9 9 10 10 10 12 15 16 16 15 14 15 15 14 14 13 11 8 7 7 7 6 6 6 6 6
15 14 12 11 9 8 11 12 14 14 13 12 13 13 12 13 11 13 14 17 17 17 14 15 14 13 15 12 12 11 11 8 7 7 7 7 6 7
14 14 13 9 8 8 9 13 13 11 12 15 15 14 14 14 14 14 14 15 17 17 14 13 14 14 14 14 12 11 11 11 11 10 8 8 7 7
13 12 11 9 9 9 11 11 10 11 15 15 15 15 15 15 15 15 15 14 14 15 13 13 14 13 14 14 14 12 11 11 11 11 11 9 7 6
12 10 9 9 10 12 12 11 12 15 15 15 15 15 15 15 14 14 15 15 14 14 13 12 13 13 13 14 14 13 12 12 11 12 11 10 9 7
10 12 11 11 12 13 14 14 15 15 14 14 15 15 15 15 15 14 15 15 16 16 13 11 11 11 13 13 13 13 12 13 11 9 9 8 7 7
11 13 15 15 16 16 16 15 14 14 14 15 15 15 15 15 16 14 15 15 17 16 15 12 11 11 11 12 13 12 12 11 9 9 9 9 8 7
13 15 16 17 17 16 16 15 15 14 15 15 15 15 16 16 15 15 15 15 16 16 15 13 12 13 13 13 10 12 10 11 9 9 9 10 10 7
15 16 17 17 16 16 16 16 16 15 15 16 16 16 15 16 15 16 15 15 15 15 13 13 13 14 15 17 14 9 11 10 10 10 10 10 10 8
16 17 17 16 17 17 16 16 16 16 16 16 15 15 16 16 16 16 15 15 14 13 14 14 13 14 14 15 14 13 9 10 10 10 10 9 9 6
17 16 16 17 16 16 16 16 16 15 14 15 16 16 15 15 16 15 15 12 11 13 15 15 13 9 12 13 14 13 10 9 9 10 10 10 10 10
16 17 16 16 16 16 16 16 15 15 15 15 16 15 15 15 15 15 14 14 13 12 14 14 13 14 17 16 14 14 12 11 9 8 8 9 11 12
17 17 17 17 16 16 16 15 15 15 15 15 15 15 14 15 14 14 13 13 11 12 14 16 14 16 17 17 14 15 13 12 12 11 10 7 7 7